Location: Newark
(59.8814°N, 10.8258°E)
Time: 20:00:36
(UTC+00:00)

Envisat - Pass Details

Date: 26 January 2020
Orbit: 764 x 766 km, 98.1° (Epoch: 22 February)

Event Time Altitude Azimuth Distance (km) Brightness Sun altitude
Rises 16:54:16 0° 169° (S) 3,227 6.3 -11.9°
Reaches altitude 10° 16:56:35 10° 172° (S) 2,304 5.6 -12.1°
Maximum altitude 17:01:39 70° 256° (WSW) 820 3.4 -12.7°
Drops below altitude 10° 17:06:45 10° 340° (NNW) 2,319 5.6 -13.4°
Sets 17:09:05 0° 343° (NNW) 3,249 6.3 -13.6°
